Location: Newark
(35.2672°N, 80.7344°W)
Time: 15:35:42
(UTC+00:00)

Tiros 1 - Pass Details

Date: 23 January 2020
Orbit: 631 x 664 km, 48.4° (Epoch: 24 February)

Event Time Altitude Azimuth Distance (km) Brightness Sun altitude
Rises 23:26:33 0° 311° (NW) 2,976 11.0 -9.4°
Reaches altitude 10° 23:29:08 10° 322° (NW) 2,068 10.0 -9.9°
Maximum altitude 23:33:20 30° 24° (NNE) 1,187 8.2 -10.8°
Enters shadow 23:36:25 16° 77° (ENE) 1,724 8.7 -11.4°
Drops below altitude 10° 23:37:33 10° 85° (E) 2,075 - -11.6°
Sets 23:40:09 0° 96° (E) 2,987 - -12.1°
